�������l�o���
Date,Time,MP-1(��Sv/h),MP-2(��Sv/h),MP-3(��Sv/h),MP-4(��Sv/h),MP-5(��Sv/h),MP-6(��Sv/h),MP-7(��Sv/h),����,����(m/s),���J
2017/05/07,00:00,0.387,0.232,0.401,0.371,0.332,0.194,0.169,�k,3.3,��
2017/05/07,00:10,0.382,0.233,0.405,0.369,0.331,0.194,0.167,�k�k��,4.9,��
2017/05/07,00:20,0.387,0.232,0.401,0.373,0.333,0.195,0.168,�k,4.4,��
2017/05/07,00:30,0.384,0.232,0.404,0.371,0.333,0.193,0.167,�k�k��,3.6,��
2017/05/07,00:40,0.386,0.232,0.402,0.372,0.331,0.193,0.167,�k�k��,7.8,��
2017/05/07,00:50,0.384,0.231,0.404,0.371,0.332,0.194,0.167,�k�k��,11.2,��
2017/05/07,01:00,0.386,0.232,0.401,0.371,0.331,0.194,0.168,�k�k��,8.8,��
2017/05/07,01:10,0.384,0.232,0.404,0.369,0.333,0.194,0.169,�k�k��,4.2,��
2017/05/07,01:20,0.385,0.232,0.401,0.372,0.330,0.193,0.167,�k,4.2,��
2017/05/07,01:30,0.384,0.232,0.404,0.370,0.334,0.194,0.168,�k,6.1,��
2017/05/07,01:40,0.384,0.231,0.401,0.372,0.329,0.194,0.167,�k,5.5,��
2017/05/07,01:50,0.384,0.232,0.403,0.370,0.333,0.194,0.167,�k,7.1,��
2017/05/07,02:00,0.385,0.232,0.402,0.371,0.330,0.194,0.167,�k,5.6,��
2017/05/07,02:10,0.384,0.231,0.402,0.370,0.333,0.194,0.168,�k,5.1,��
2017/05/07,02:20,0.386,0.233,0.401,0.374,0.330,0.193,0.167,�k,4.8,��
2017/05/07,02:30,0.385,0.231,0.402,0.369,0.333,0.194,0.168,�k,4.3,��
2017/05/07,02:40,0.387,0.232,0.402,0.372,0.330,0.193,0.167,�k,3.9,��
2017/05/07,02:50,0.384,0.231,0.402,0.370,0.332,0.193,0.168,�k,5.0,��
2017/05/07,03:00,0.385,0.231,0.403,0.373,0.330,0.194,0.168,�k,4.0,��
2017/05/07,03:10,0.384,0.232,0.402,0.370,0.333,0.194,0.167,�k,4.5,��
2017/05/07,03:20,0.385,0.231,0.403,0.372,0.330,0.194,0.168,�k,3.6,��
2017/05/07,03:30,0.385,0.231,0.400,0.369,0.332,0.195,0.168,�k�k��,4.8,��
2017/05/07,03:40,0.384,0.231,0.402,0.371,0.329,0.194,0.168,�k�k��,5.1,��
2017/05/07,03:50,0.386,0.231,0.402,0.368,0.331,0.193,0.166,�k�k��,5.3,��
2017/05/07,04:00,0.384,0.233,0.403,0.373,0.332,0.194,0.168,�k�k��,4.0,��
2017/05/07,04:10,0.386,0.232,0.402,0.370,0.330,0.195,0.167,�k�k��,5.9,��
2017/05/07,04:20,0.384,0.232,0.403,0.371,0.332,0.194,0.167,�k�k��,6.0,��
2017/05/07,04:30,0.386,0.231,0.400,0.369,0.329,0.193,0.167,�k�k��,6.1,��
2017/05/07,04:40,0.385,0.232,0.402,0.370,0.333,0.193,0.167,�k�k��,4.3,��
2017/05/07,04:50,0.387,0.231,0.401,0.371,0.330,0.194,0.168,�k�k��,5.3,��
2017/05/07,05:00,0.383,0.231,0.400,0.371,0.332,0.193,0.167,�k�k��,4.8,��
2017/05/07,05:10,0.386,0.232,0.402,0.372,0.331,0.193,0.168,�k,5.4,��
2017/05/07,05:20,0.382,0.230,0.401,0.370,0.332,0.194,0.168,�k,4.9,��
2017/05/07,05:30,0.385,0.232,0.404,0.373,0.331,0.194,0.168,�k�k��,4.1,��
2017/05/07,05:40,0.385,0.232,0.401,0.370,0.331,0.194,0.167,�k�k��,4.0,��
2017/05/07,05:50,0.385,0.230,0.403,0.372,0.331,0.193,0.166,�k�k��,3.9,��
2017/05/07,06:00,0.385,0.232,0.400,0.368,0.331,0.193,0.168,�k�k��,4.8,��
2017/05/07,06:10,0.385,0.232,0.403,0.373,0.330,0.194,0.166,�k�k��,5.3,��
2017/05/07,06:20,0.385,0.232,0.401,0.369,0.331,0.193,0.168,�k,3.6,��
2017/05/07,06:30,0.383,0.231,0.403,0.372,0.329,0.194,0.168,�k,3.8,��
2017/05/07,06:40,0.387,0.231,0.401,0.369,0.333,0.193,0.168,�k,4.8,��
2017/05/07,06:50,0.384,0.233,0.401,0.372,0.332,0.194,0.167,�k�k��,5.2,��
2017/05/07,07:00,0.385,0.232,0.400,0.368,0.330,0.194,0.168,�k�k��,4.5,��
2017/05/07,07:10,0.383,0.232,0.403,0.373,0.330,0.194,0.166,�k�k��,4.7,��
2017/05/07,07:20,0.386,0.231,0.402,0.369,0.331,0.193,0.167,�k�k��,5.8,��
2017/05/07,07:30,0.383,0.232,0.401,0.371,0.332,0.193,0.168,�k,3.8,��
2017/05/07,07:40,0.387,0.231,0.403,0.369,0.332,0.194,0.167,�k,4.4,��
2017/05/07,07:50,0.383,0.232,0.401,0.373,0.331,0.194,0.167,�k,2.9,��
2017/05/07,08:00,0.387,0.231,0.402,0.369,0.332,0.193,0.169,�k,3.4,��
2017/05/07,08:10,0.384,0.231,0.401,0.370,0.328,0.195,0.168,�k�k��,3.6,��
2017/05/07,08:20,0.385,0.231,0.401,0.369,0.332,0.193,0.169,�k�k��,2.7,��
2017/05/07,08:30,0.384,0.231,0.401,0.372,0.330,0.195,0.167,�k�k��,4.0,��
2017/05/07,08:40,0.385,0.232,0.400,0.369,0.333,0.194,0.168,�k�k��,3.1,��
2017/05/07,08:50,0.383,0.230,0.402,0.370,0.330,0.193,0.168,�k�k��,3.1,��
2017/05/07,09:00,0.383,0.231,0.401,0.372,0.332,0.194,0.168,�k��,3.9,��
2017/05/07,09:10,0.386,0.231,0.403,0.368,0.332,0.194,0.167,�k�k��,3.9,��
2017/05/07,09:20,0.382,0.230,0.400,0.367,0.329,0.195,0.166,�k��,3.9,��
2017/05/07,09:30,0.382,0.229,0.400,0.365,0.329,0.194,0.168,�k��,1.9,��
2017/05/07,09:40,0.386,0.232,0.403,0.366,0.325,0.193,0.167,���k��,2.5,��
2017/05/07,09:50,0.383,0.231,0.400,0.368,0.327,0.193,0.166,�k��,2.5,��
2017/05/07,10:00,0.382,0.230,0.401,0.373,0.331,0.194,0.166,�k�k��,0.8,��
2017/05/07,10:10,0.387,0.231,0.404,0.372,0.331,0.194,0.168,�k��,2.0,��
2017/05/07,10:20,0.382,0.231,0.398,0.371,0.328,0.194,0.167,���k��,1.9,��
2017/05/07,10:30,0.387,0.232,0.404,0.374,0.334,0.195,0.168,���쓌,2.8,��
2017/05/07,10:40,0.385,0.232,0.403,0.371,0.331,0.193,0.167,��,3.4,��
2017/05/07,10:50,0.382,0.231,0.399,0.370,0.328,0.194,0.167,���쓌,4.3,��
2017/05/07,11:00,0.386,0.230,0.404,0.374,0.332,0.194,0.167,���쓌,4.2,��
2017/05/07,11:10,0.385,0.232,0.402,0.370,0.331,0.193,0.168,���쓌,4.2,��
2017/05/07,11:20,0.382,0.231,0.400,0.372,0.330,0.195,0.166,��,4.7,��
2017/05/07,11:30,0.386,0.231,0.404,0.372,0.332,0.194,0.168,�쓌,3.8,��
2017/05/07,11:40,0.385,0.232,0.402,0.369,0.333,0.193,0.168,�쓌,4.0,��
2017/05/07,11:50,0.381,0.231,0.398,0.369,0.330,0.194,0.167,�쓌,3.9,��
2017/05/07,12:00,0.386,0.231,0.403,0.374,0.327,0.194,0.167,��쓌,3.7,��
2017/05/07,12:10,0.385,0.234,0.403,0.372,0.329,0.194,0.169,�쓌,3.9,��
2017/05/07,12:20,0.383,0.232,0.400,0.369,0.332,0.195,0.168,�쓌,3.5,��
2017/05/07,12:30,0.382,0.231,0.398,0.368,0.331,0.196,0.168,�쓌,3.8,��
2017/05/07,12:40,0.386,0.231,0.398,0.370,0.329,0.194,0.167,��쓌,5.5,��
2017/05/07,12:50,0.385,0.233,0.397,0.374,0.328,0.195,0.168,��쓌,5.1,��
2017/05/07,13:00,0.382,0.232,0.404,0.371,0.330,0.195,0.168,��쓌,4.4,��
2017/05/07,13:10,0.383,0.232,0.404,0.369,0.333,0.194,0.168,��쓌,4.9,��
2017/05/07,13:20,0.387,0.230,0.403,0.369,0.332,0.194,0.167,��쓌,2.8,��
2017/05/07,13:30,0.385,0.232,0.401,0.371,0.331,0.195,0.169,��쓌,4.8,��
2017/05/07,13:40,0.382,0.234,0.400,0.374,0.328,0.195,0.169,��,5.1,��
2017/05/07,13:50,0.385,0.232,0.397,0.372,0.328,0.193,0.167,��,6.6,��
2017/05/07,14:00,0.387,0.231,0.404,0.370,0.328,0.193,0.166,��,6.4,��
2017/05/07,14:10,0.386,0.233,0.405,0.370,0.329,0.195,0.167,��,6.5,��
2017/05/07,14:20,0.383,0.233,0.403,0.375,0.334,0.194,0.169,��쐼,5.8,��
2017/05/07,14:30,0.388,0.232,0.399,0.373,0.333,0.195,0.168,��,5.9,��
2017/05/07,14:40,0.387,0.232,0.400,0.372,0.331,0.195,0.168,��,6.3,��
2017/05/07,14:50,0.383,0.234,0.405,0.372,0.329,0.195,0.169,��,7.5,��
2017/05/07,15:00,0.386,0.233,0.407,0.376,0.330,0.196,0.167,��,7.9,��
2017/05/07,15:10,0.388,0.231,0.401,0.372,0.334,0.194,0.169,��,7.0,��
2017/05/07,15:20,0.384,0.232,0.402,0.373,0.333,0.194,0.169,��,7.5,��
2017/05/07,15:30,0.386,0.232,0.407,0.374,0.330,0.196,0.167,��,7.3,��
2017/05/07,15:40,0.387,0.232,0.404,0.370,0.330,0.194,0.168,��,6.9,��
2017/05/07,15:50,0.383,0.232,0.400,0.376,0.333,0.193,0.167,��,6.0,��
2017/05/07,16:00,0.389,0.232,0.405,0.374,0.333,0.195,0.169,��,5.7,��
2017/05/07,16:10,0.387,0.231,0.402,0.371,0.328,0.194,0.169,��,7.7,��
2017/05/07,16:20,0.383,0.233,0.404,0.376,0.328,0.195,0.168,��쓌,8.9,��
2017/05/07,16:30,0.388,0.232,0.406,0.371,0.334,0.195,0.168,��,6.4,��
2017/05/07,16:40,0.387,0.233,0.403,0.375,0.333,0.194,0.168,��,5.6,��
2017/05/07,16:50,0.384,0.231,0.407,0.373,0.331,0.195,0.169,��,5.0,��
2017/05/07,17:00,0.388,0.233,0.403,0.372,0.334,0.196,0.168,���k��,1.4,��
2017/05/07,17:10,0.385,0.233,0.405,0.375,0.331,0.194,0.169,�k��,7.0,��
2017/05/07,17:20,0.387,0.233,0.405,0.372,0.334,0.195,0.167,���k��,8.1,��
2017/05/07,17:30,0.386,0.233,0.402,0.376,0.334,0.195,0.170,���k��,7.8,��
2017/05/07,17:40,0.385,0.234,0.404,0.372,0.331,0.195,0.169,���k��,9.4,��
2017/05/07,17:50,0.387,0.233,0.401,0.373,0.334,0.195,0.168,���k��,7.3,��
2017/05/07,18:00,0.386,0.233,0.407,0.374,0.332,0.195,0.169,���k��,7.3,��
2017/05/07,18:10,0.387,0.231,0.404,0.374,0.333,0.195,0.169,���k��,4.2,��
2017/05/07,18:20,0.384,0.231,0.405,0.375,0.333,0.195,0.170,���k��,2.8,��
2017/05/07,18:30,0.388,0.232,0.406,0.372,0.333,0.196,0.169,��,1.9,��
2017/05/07,18:40,0.386,0.234,0.406,0.374,0.333,0.195,0.168,��,3.3,��
2017/05/07,18:50,0.388,0.232,0.404,0.371,0.331,0.195,0.168,���k��,1.6,��
2017/05/07,19:00,0.387,0.234,0.404,0.374,0.333,0.194,0.169,���k��,0.9,��
2017/05/07,19:10,0.386,0.232,0.403,0.372,0.332,0.195,0.169,��,3.8,��
2017/05/07,19:20,0.388,0.233,0.404,0.375,0.334,0.195,0.169,���k��,5.9,��
2017/05/07,19:30,0.388,0.233,0.403,0.374,0.331,0.195,0.168,���k��,7.3,��
2017/05/07,19:40,0.387,0.233,0.405,0.375,0.333,0.194,0.169,��,8.1,��
2017/05/07,19:50,0.384,0.232,0.405,0.372,0.333,0.195,0.168,���k��,9.2,��
2017/05/07,20:00,0.386,0.234,0.403,0.375,0.334,0.196,0.169,���k��,6.2,��
2017/05/07,20:10,0.386,0.233,0.405,0.371,0.331,0.195,0.168,��,8.1,��
2017/05/07,20:20,0.388,0.232,0.405,0.376,0.334,0.195,0.170,���k��,8.9,��
2017/05/07,20:30,0.386,0.234,0.406,0.371,0.332,0.195,0.168,���k��,7.8,��
2017/05/07,20:40,0.389,0.232,0.406,0.375,0.332,0.195,0.169,��,10.3,��
2017/05/07,20:50,0.386,0.234,0.405,0.372,0.331,0.196,0.168,���k��,6.7,��
2017/05/07,21:00,0.387,0.234,0.406,0.376,0.333,0.195,0.169,���k��,3.1,��
2017/05/07,21:10,0.387,0.232,0.403,0.372,0.330,0.196,0.168,���k��,4.2,��
2017/05/07,21:20,0.390,0.232,0.407,0.374,0.332,0.196,0.169,���k��,2.0,��
2017/05/07,21:30,0.387,0.232,0.404,0.373,0.333,0.196,0.169,�k,1.6,��
2017/05/07,21:40,0.389,0.234,0.407,0.374,0.332,0.195,0.168,�k,1.5,��
2017/05/07,21:50,0.387,0.234,0.404,0.372,0.334,0.195,0.168,�k,1.4,��
2017/05/07,22:00,0.386,0.234,0.407,0.374,0.332,0.195,0.169,�k,2.5,��
2017/05/07,22:10,0.387,0.234,0.407,0.375,0.334,0.195,0.168,�k��,0.8,��
2017/05/07,22:20,0.386,0.234,0.405,0.373,0.331,0.195,0.169,���k��,1.6,��
2017/05/07,22:30,0.389,0.234,0.406,0.378,0.334,0.196,0.168,��쐼,1.2,��
2017/05/07,22:40,0.388,0.233,0.404,0.373,0.332,0.195,0.169,��,1.6,��
2017/05/07,22:50,0.389,0.232,0.406,0.375,0.334,0.195,0.168,���k��,1.8,��
2017/05/07,23:00,0.388,0.233,0.405,0.374,0.334,0.196,0.169,��쓌,2.0,��
2017/05/07,23:10,0.387,0.235,0.405,0.374,0.330,0.195,0.168,��쐼,3.1,��
2017/05/07,23:20,0.388,0.234,0.407,0.374,0.334,0.195,0.168,��쐼,3.7,��
2017/05/07,23:30,0.385,0.234,0.407,0.374,0.332,0.196,0.169,��,3.3,��
2017/05/07,23:40,0.389,0.235,0.407,0.376,0.333,0.195,0.170,��,3.3,��
2017/05/07,23:50,0.386,0.234,0.406,0.373,0.333,0.195,0.169,��,3.3,��
